| time (UTC) | temp F | wind direction | speed MPH | gust MPH | rain 1hr in | rain 24hr in | rain mn in | humidity % | barometer mb |
| 20260506013829 | 50 | 34 | 13.0 | 18.0 | 0.00 | 0.08 | 0.00 | 82 | 1008.2 |
| 20260506013324 | 50 | 24 | 12.0 | 19.0 | 0.00 | 0.08 | 0.00 | 82 | 1008.2 |
| 20260506012818 | 50 | 50 | 12.0 | 19.0 | 0.00 | 0.08 | 0.00 | 82 | 1008.1 |
| 20260506012317 | 50 | 42 | 13.0 | 20.0 | 0.00 | 0.08 | 0.00 | 82 | 1008.0 |
| 20260506011326 | 50 | 19 | 14.0 | 17.0 | 0.00 | 0.08 | 0.00 | 82 | 1007.9 |
| 20260506010820 | 50 | 38 | 12.0 | 22.0 | 0.00 | 0.08 | 0.00 | 82 | 1007.9 |
| 20260506010315 | 50 | 50 | 14.0 | 22.0 | 0.00 | 0.08 | 0.00 | 82 | 1007.9 |
| 20260506005829 | 50 | 36 | 11.0 | 17.0 | 0.00 | 0.08 | 0.00 | 82 | 1008.0 |
| 20260506005322 | 51 | 17 | 12.0 | 17.0 | 0.00 | 0.08 | 0.00 | 81 | 1007.9 |
| 20260506004815 | 51 | 53 | 12.0 | 17.0 | 0.00 | 0.08 | 0.00 | 81 | 1007.6 |
| 20260506004313 | 51 | 26 | 12.0 | 19.0 | 0.00 | 0.08 | 0.00 | 81 | 1007.6 |
| 20260506003826 | 51 | 38 | 10.0 | 20.0 | 0.00 | 0.08 | 0.00 | 81 | 1007.5 |
| 20260506002313 | 51 | 19 | 10.0 | 14.0 | 0.00 | 0.08 | 0.00 | 80 | 1007.5 |
| 20260506001828 | 51 | 27 | 9.0 | 17.0 | 0.00 | 0.08 | 0.00 | 80 | 1007.6 |
| 20260506001320 | 51 | 29 | 10.0 | 19.0 | 0.00 | 0.08 | 0.00 | 79 | 1007.6 |
| 20260506000814 | 51 | 22 | 9.0 | 19.0 | 0.00 | 0.08 | 0.00 | 79 | 1007.6 |
| 20260506000330 | 51 | 5 | 10.0 | 17.0 | 0.00 | 0.08 | 0.00 | 79 | 1007.5 |
| 20260505235827 | 51 | 34 | 10.0 | 14.0 | 0.00 | 0.08 | 0.00 | 79 | 1007.6 |
| 20260505235322 | 52 | 17 | 10.0 | 18.0 | 0.00 | 0.08 | 0.00 | 79 | 1007.6 |
| 20260505234816 | 52 | 12 | 11.0 | 19.0 | 0.00 | 0.08 | 0.00 | 78 | 1007.7 |
| 20260505234330 | 52 | 26 | 11.0 | 19.0 | 0.00 | 0.08 | 0.00 | 78 | 1007.5 |
| 20260505233823 | 52 | 44 | 10.0 | 20.0 | 0.00 | 0.08 | 0.00 | 78 | 1007.3 |
| 20260505233318 | 52 | 19 | 14.0 | 20.0 | 0.00 | 0.08 | 0.00 | 78 | 1007.1 |
| 20260505232831 | 52 | 24 | 13.0 | 19.0 | 0.00 | 0.08 | 0.00 | 78 | 1007.3 |
| 20260505231824 | 52 | 44 | 12.0 | 18.0 | 0.00 | 0.08 | 0.00 | 77 | 1007.1 |
| 20260505231317 | 52 | 11 | 13.0 | 19.0 | 0.00 | 0.08 | 0.00 | 77 | 1007.0 |
| 20260505230832 | 52 | 13 | 10.0 | 21.0 | 0.00 | 0.08 | 0.00 | 77 | 1006.9 |
| 20260505230326 | 52 | 40 | 11.0 | 19.0 | 0.00 | 0.08 | 0.00 | 77 | 1007.0 |
| 20260505225821 | 52 | 35 | 11.0 | 21.0 | 0.00 | 0.08 | 0.00 | 77 | 1006.6 |
| 20260505225314 | 53 | 40 | 12.0 | 25.0 | 0.00 | 0.08 | 0.00 | 76 | 1006.4 |
| 20260505224828 | 53 | 40 | 14.0 | 22.0 | 0.00 | 0.08 | 0.00 | 76 | 1006.5 |
| 20260505224327 | 53 | 22 | 11.0 | 19.0 | 0.00 | 0.08 | 0.00 | 75 | 1006.5 |
| 20260505223821 | 53 | 42 | 13.0 | 19.0 | 0.00 | 0.08 | 0.00 | 76 | 1006.1 |
| 20260505223316 | 53 | 23 | 12.0 | 20.0 | 0.00 | 0.08 | 0.00 | 76 | 1006.2 |
| 20260505222829 | 53 | 30 | 13.0 | 20.0 | 0.00 | 0.08 | 0.00 | 75 | 1006.4 |
| 20260505222323 | 53 | 28 | 12.0 | 21.0 | 0.00 | 0.08 | 0.00 | 76 | 1006.4 |
| 20260505221333 | 53 | 51 | 10.0 | 19.0 | 0.00 | 0.08 | 0.00 | 77 | 1006.4 |
| 20260505220827 | 53 | 44 | 13.0 | 22.0 | 0.00 | 0.08 | 0.00 | 76 | 1006.4 |
| 20260505220325 | 53 | 22 | 12.0 | 23.0 | 0.00 | 0.08 | 0.00 | 76 | 1006.4 |
| 20260505215818 | 54 | 28 | 17.0 | 23.0 | 0.00 | 0.08 | 0.00 | 76 | 1006.3 |
| 20260505215332 | 54 | 351 | 10.0 | 20.0 | 0.00 | 0.08 | 0.00 | 77 | 1006.1 |
| 20260505214323 | 54 | 42 | 11.0 | 28.0 | 0.00 | 0.08 | 0.00 | 76 | 1006.0 |
| 20260505213818 | 54 | 36 | 14.0 | 28.0 | 0.00 | 0.08 | 0.00 | 76 | 1005.8 |
| 20260505212826 | 54 | 36 | 12.0 | 23.0 | 0.00 | 0.08 | 0.00 | 77 | 1005.9 |
| 20260505210832 | 54 | 35 | 13.0 | 23.0 | 0.00 | 0.08 | 0.00 | 77 | 1006.0 |
| 20260505210326 | 54 | 17 | 16.0 | 23.0 | 0.00 | 0.08 | 0.00 | 77 | 1006.0 |
| 20260505205318 | 54 | 36 | 14.0 | 21.0 | 0.00 | 0.08 | 0.00 | 79 | 1005.7 |
| 20260505204832 | 54 | 26 | 11.0 | 24.0 | 0.00 | 0.08 | 0.00 | 80 | 1005.5 |
| 20260505204327 | 54 | 43 | 15.0 | 23.0 | 0.00 | 0.08 | 0.00 | 80 | 1005.5 |
| 20260505203821 | 54 | 36 | 13.0 | 23.0 | 0.00 | 0.08 | 0.00 | 81 | 1005.5 |
| 20260505203320 | 54 | 46 | 15.0 | 23.0 | 0.00 | 0.08 | 0.00 | 81 | 1005.5 |
| 20260505202832 | 54 | 28 | 12.0 | 22.0 | 0.00 | 0.08 | 0.00 | 82 | 1005.5 |
| 20260505202327 | 54 | 55 | 11.0 | 23.0 | 0.00 | 0.08 | 0.00 | 83 | 1005.5 |
| 20260505201317 | 54 | 22 | 12.0 | 20.0 | 0.00 | 0.08 | 0.00 | 83 | 1005.7 |
| 20260505200328 | 55 | 16 | 12.0 | 20.0 | 0.00 | 0.08 | 0.00 | 83 | 1005.6 |
| 20260505195823 | 55 | 15 | 12.0 | 20.0 | 0.00 | 0.08 | 0.00 | 83 | 1005.5 |
| 20260505195317 | 55 | 28 | 11.0 | 21.0 | 0.00 | 0.08 | 0.00 | 83 | 1005.4 |
| 20260505194815 | 55 | 5 | 12.0 | 21.0 | 0.00 | 0.08 | 0.00 | 83 | 1005.5 |
| 20260505193323 | 55 | 32 | 12.0 | 23.0 | 0.00 | 0.08 | 0.00 | 83 | 1005.3 |
| 20260505192817 | 55 | 28 | 15.0 | 23.0 | 0.00 | 0.08 | 0.00 | 83 | 1005.3 |
| 20260505192330 | 55 | 38 | 13.0 | 21.0 | 0.00 | 0.08 | 0.00 | 84 | 1005.3 |
| 20260505190817 | 55 | 26 | 12.0 | 19.0 | 0.00 | 0.08 | 0.00 | 84 | 1005.1 |
| 20260505190315 | 55 | 61 | 13.0 | 18.0 | 0.00 | 0.08 | 0.00 | 84 | 1005.0 |
| 20260505185325 | 56 | 54 | 14.0 | 21.0 | 0.00 | 0.08 | 0.00 | 85 | 1005.2 |
| 20260505184818 | 56 | 30 | 10.0 | 16.0 | 0.00 | 0.08 | 0.00 | 85 | 1005.5 |
| 20260505184325 | 56 | 42 | 8.0 | 16.0 | 0.00 | 0.08 | 0.00 | 85 | 1005.5 |
| 20260505183819 | 56 | 26 | 8.0 | 20.0 | 0.00 | 0.08 | 0.00 | 85 | 1005.2 |
| 20260505183334 | 56 | 19 | 13.0 | 20.0 | 0.00 | 0.08 | 0.00 | 85 | 1004.8 |
| 20260505182323 | 56 | 31 | 12.0 | 17.0 | 0.00 | 0.08 | 0.00 | 85 | 1004.6 |
| 20260505181821 | 56 | 32 | 10.0 | 17.0 | 0.00 | 0.08 | 0.00 | 86 | 1004.6 |
| 20260505181316 | 56 | 44 | 12.0 | 18.0 | 0.00 | 0.08 | 0.00 | 86 | 1004.6 |
| 20260505180830 | 56 | 24 | 12.0 | 19.0 | 0.00 | 0.08 | 0.00 | 86 | 1004.7 |
| 20260505180325 | 56 | 30 | 13.0 | 19.0 | 0.00 | 0.08 | 0.00 | 86 | 1004.7 |
| 20260505175819 | 56 | 42 | 10.0 | 18.0 | 0.00 | 0.08 | 0.00 | 87 | 1004.7 |
| 20260505174829 | 56 | 26 | 10.0 | 19.0 | 0.00 | 0.08 | 0.00 | 87 | 1004.9 |
| 20260505174324 | 56 | 51 | 11.0 | 19.0 | 0.00 | 0.08 | 0.00 | 87 | 1004.7 |
| 20260505173822 | 56 | 16 | 13.0 | 19.0 | 0.00 | 0.08 | 0.00 | 87 | 1004.3 |
| 20260505173317 | 56 | 34 | 14.0 | 21.0 | 0.00 | 0.08 | 0.00 | 87 | 1004.2 |
| 20260505172831 | 56 | 19 | 12.0 | 21.0 | 0.00 | 0.08 | 0.00 | 87 | 1004.1 |
| 20260505171822 | 56 | 59 | 14.0 | 23.0 | 0.00 | 0.08 | 0.00 | 87 | 1003.7 |
| 20260505171317 | 56 | 32 | 14.0 | 23.0 | 0.00 | 0.08 | 0.00 | 87 | 1003.7 |
| 20260505170830 | 56 | 5 | 12.0 | 22.0 | 0.00 | 0.08 | 0.00 | 87 | 1003.7 |
| 20260505170325 | 56 | 360 | 14.0 | 22.0 | 0.00 | 0.08 | 0.00 | 87 | 1003.6 |
| 20260505165823 | 56 | 42 | 12.0 | 22.0 | 0.00 | 0.08 | 0.00 | 87 | 1003.9 |
| 20260505165316 | 56 | 28 | 15.0 | 22.0 | 0.00 | 0.08 | 0.00 | 87 | 1003.8 |
| 20260505164831 | 56 | 19 | 13.0 | 19.0 | 0.00 | 0.08 | 0.00 | 87 | 1003.7 |
| 20260505164325 | 56 | 36 | 13.0 | 22.0 | 0.00 | 0.08 | 0.00 | 87 | 1003.5 |
| 20260505163820 | 57 | 9 | 14.0 | 21.0 | 0.00 | 0.08 | 0.00 | 87 | 1003.5 |
| 20260505163333 | 57 | 22 | 13.0 | 21.0 | 0.00 | 0.08 | 0.00 | 87 | 1003.4 |
| 20260505162323 | 58 | 11 | 14.0 | 20.0 | 0.00 | 0.08 | 0.00 | 87 | 1003.3 |
| 20260505161822 | 58 | 5 | 12.0 | 20.0 | 0.00 | 0.08 | 0.00 | 87 | 1003.5 |
| 20260505161316 | 58 | 34 | 14.0 | 21.0 | 0.00 | 0.08 | 0.00 | 87 | 1003.4 |
| 20260505160831 | 58 | 360 | 13.0 | 21.0 | 0.00 | 0.08 | 0.00 | 87 | 1003.4 |
| 20260505160325 | 59 | 32 | 12.0 | 24.0 | 0.00 | 0.08 | 0.00 | 87 | 1003.2 |
| 20260505153321 | 60 | 28 | 12.0 | 19.0 | 0.00 | 0.08 | 0.00 | 87 | 1002.8 |
| 20260505152815 | 60 | 33 | 11.0 | 17.0 | 0.00 | 0.08 | 0.00 | 87 | 1002.8 |
| 20260505152329 | 60 | 323 | 8.0 | 17.0 | 0.00 | 0.08 | 0.00 | 87 | 1002.7 |
| 20260505151319 | 61 | 350 | 11.0 | 17.0 | 0.00 | 0.08 | 0.00 | 86 | 1002.7 |
| 20260505150833 | 62 | 344 | 12.0 | 17.0 | 0.00 | 0.08 | 0.00 | 86 | 1002.4 |
| 20260505140317 | 65 | 24 | 7.0 | 11.0 | 0.00 | 0.08 | 0.00 | 86 | 1001.8 |
| 20260505124827 | 66 | 24 | 6.0 | 9.0 | 0.00 | 0.08 | 0.00 | 85 | 1002.1 |
| 20260505123818 | 65 | 95 | 3.0 | 10.0 | 0.00 | 0.08 | 0.00 | 86 | 1002.0 |
| 20260505041318 | 70 | 109 | 4.0 | 8.0 | 0.00 | 0.00 | 0.00 | 68 | 1001.7 |
| 20260505040329 | 70 | 139 | 5.0 | 11.0 | 0.00 | 0.00 | 0.00 | 68 | 1001.5 |
| 20260505035322 | 70 | 142 | 5.0 | 11.0 | 0.00 | 0.00 | 0.00 | 68 | 1001.4 |
| 20260505034816 | 70 | 155 | 5.0 | 13.0 | 0.00 | 0.00 | 0.00 | 68 | 1001.4 |
| 20260505033828 | 70 | 135 | 5.0 | 10.0 | 0.00 | 0.00 | 0.00 | 68 | 1001.5 |
| 20260505032819 | 70 | 136 | 5.0 | 8.0 | 0.00 | 0.00 | 0.00 | 68 | 1001.9 |
| 20260505032334 | 70 | 144 | 4.0 | 8.0 | 0.00 | 0.00 | 0.00 | 68 | 1002.1 |
| 20260505031326 | 70 | 152 | 3.0 | 6.0 | 0.00 | 0.00 | 0.00 | 68 | 1002.3 |
| 20260505030821 | 70 | 164 | 3.0 | 6.0 | 0.00 | 0.00 | 0.00 | 68 | 1002.6 |
| 20260505030315 | 70 | 144 | 3.0 | 6.0 | 0.00 | 0.00 | 0.00 | 69 | 1002.7 |
| 20260505025828 | 70 | 142 | 3.0 | 6.0 | 0.00 | 0.00 | 0.00 | 69 | 1002.6 |
| 20260505025322 | 70 | 146 | 3.0 | 8.0 | 0.00 | 0.00 | 0.00 | 69 | 1002.6 |
| 20260505024817 | 70 | 141 | 4.0 | 8.0 | 0.00 | 0.00 | 0.00 | 69 | 1002.4 |
| 20260505024330 | 70 | 141 | 3.0 | 8.0 | 0.00 | 0.00 | 0.00 | 69 | 1002.4 |
| 20260505022822 | 70 | 142 | 3.0 | 7.0 | 0.00 | 0.00 | 0.00 | 70 | 1002.3 |
| 20260505022316 | 70 | 130 | 3.0 | 7.0 | 0.00 | 0.00 | 0.00 | 70 | 1002.3 |
| 20260505021326 | 71 | 150 | 4.0 | 7.0 | 0.00 | 0.00 | 0.00 | 69 | 1002.3 |
| 20260505020821 | 71 | 123 | 3.0 | 4.0 | 0.00 | 0.00 | 0.00 | 69 | 1002.4 |
| 20260505020314 | 71 | 146 | 3.0 | 4.0 | 0.00 | 0.00 | 0.00 | 69 | 1002.5 |
| 20260505015827 | 71 | 154 | 3.0 | 5.0 | 0.00 | 0.00 | 0.00 | 69 | 1002.5 |
| 20260505015321 | 71 | 159 | 3.0 | 5.0 | 0.00 | 0.00 | 0.00 | 68 | 1002.3 |
| 20260505014819 | 71 | 154 | 4.0 | 6.0 | 0.00 | 0.00 | 0.00 | 68 | 1002.1 |
| 20260505014333 | 71 | 155 | 2.0 | 5.0 | 0.00 | 0.00 | 0.00 | 68 | 1002.1 |